| time (UTC) | temp C | wind direction | speed KPH | gust KPH | rain 1hr cm | rain 24hr cm | rain mn cm | humidity % | barometer mb |
| 20260507134025 | 13 | 0.0 | 4.8 | 0.00 | 0.00 | 0.00 | 74 | 1011.3 | |
| 20260507133024 | 13 | 0.0 | 4.8 | 0.00 | 0.00 | 0.00 | 73 | 1011.2 | |
| 20260507132026 | 13 | 0.0 | 3.2 | 0.00 | 0.00 | 0.00 | 79 | 1011.2 | |
| 20260507131026 | 13 | 68 | 1.6 | 8.0 | 0.00 | 0.00 | 0.00 | 78 | 1011.1 |
| 20260507130050 | 13 | 0.0 | 9.7 | 0.00 | 0.00 | 0.00 | 77 | 1011.2 | |
| 20260507125027 | 13 | 0.0 | 4.8 | 0.00 | 0.00 | 0.00 | 79 | 1011.3 | |
| 20260507124024 | 13 | 68 | 1.6 | 8.0 | 0.00 | 0.00 | 0.00 | 80 | 1011.1 |
| 20260507123026 | 13 | 0.0 | 8.0 | 0.00 | 0.00 | 0.00 | 83 | 1011.1 | |
| 20260507122027 | 13 | 0.0 | 1.6 | 0.00 | 0.00 | 0.00 | 85 | 1011.0 | |
| 20260507121027 | 12 | 0.0 | 3.2 | 0.00 | 0.00 | 0.00 | 85 | 1010.7 | |
| 20260507120026 | 12 | 0.0 | 8.0 | 0.00 | 0.00 | 0.00 | 86 | 1010.4 | |
| 20260507115026 | 12 | 0.0 | 4.8 | 0.00 | 0.00 | 0.00 | 86 | 1010.7 | |
| 20260507114026 | 12 | 0.0 | 9.7 | 0.00 | 0.00 | 0.00 | 86 | 1010.8 | |
| 20260507113026 | 12 | 0.0 | 4.8 | 0.00 | 0.00 | 0.00 | 86 | 1010.6 | |
| 20260507112026 | 12 | 0.0 | 4.8 | 0.00 | 0.00 | 0.00 | 86 | 1010.3 | |
| 20260507111106 | 12 | 0.0 | 0.0 | 0.00 | 0.00 | 0.00 | 85 | 1010.6 | |
| 20260507110025 | -17 | 0.0 | 0.0 | 0.00 | 0.00 | 0.00 | |||
| 20260507105025 | -17 | 0.0 | 0.0 | 0.00 | 0.00 | 0.00 | |||
| 20260507104543 | -17 | 0.0 | 0.0 | 0.00 | 0.00 | 0.00 | |||
| 20260507104021 | -17 | 0.0 | 0.0 | 0.00 | 0.00 | 0.00 | |||
| 20260507103605 | -17 | 0.0 | 0.0 | 0.00 | 0.00 | 0.00 | |||
| 20260507102525 | -17 | 0.0 | 0.0 | 0.00 | 0.00 | 0.00 | |||
| 20260507102044 | -17 | 0.0 | 0.0 | 0.00 | 0.00 | 0.00 | |||
| 20260507101523 | -17 | 0.0 | 0.0 | 0.00 | 0.00 | 0.00 | |||
| 20260507101026 | -17 | 0.0 | 0.0 | 0.00 | 0.00 | 0.00 | |||
| 20260507100024 | -17 | 0.0 | 0.0 | 0.00 | 0.00 | 0.00 | |||
| 20260507095559 | -17 | 0.0 | 0.0 | 0.00 | 0.00 | 0.00 | |||
| 20260507095059 | -17 | 0.0 | 0.0 | 0.00 | 0.00 | 0.00 | |||
| 20260507094524 | -17 | 0.0 | 0.0 | 0.00 | 0.00 | 0.00 | |||
| 20260507093525 | -17 | 0.0 | 0.0 | 0.00 | 0.00 | 0.00 | |||
| 20260507093039 | -17 | 0.0 | 0.0 | 0.00 | 0.00 | 0.00 | |||
| 20260507092519 | -17 | 0.0 | 0.0 | 0.00 | 0.00 | 0.00 | |||
| 20260507091544 | -17 | 0.0 | 0.0 | 0.00 | 0.00 | 0.00 | |||
| 20260507090607 | -17 | 0.0 | 0.0 | 0.00 | 0.00 | 0.00 | 76 | ||
| 20260507090103 | -17 | 0.0 | 0.0 | 0.00 | 0.00 | 0.00 | 76 | ||
| 20260507085046 | 12 | 0.0 | 1.6 | 0.00 | 0.00 | 0.00 | 71 | 1009.6 | |
| 20260507084026 | 12 | 0.0 | 1.6 | 0.00 | 0.00 | 0.00 | 70 | 1009.9 | |
| 20260507083027 | 12 | 0.0 | 0.0 | 0.00 | 0.00 | 0.00 | 67 | 1009.9 | |
| 20260507082026 | 12 | 0.0 | 1.6 | 0.00 | 0.00 | 0.00 | 69 | 1009.9 | |
| 20260507081026 | 12 | 0.0 | 0.0 | 0.00 | 0.00 | 0.00 | 70 | 1010.2 | |
| 20260507080026 | 12 | 0.0 | 1.6 | 0.00 | 0.00 | 0.00 | 70 | 1009.5 | |
| 20260507075026 | 13 | 0.0 | 1.6 | 0.00 | 0.00 | 0.00 | 65 | 1009.3 | |
| 20260507074026 | 13 | 0.0 | 1.6 | 0.00 | 0.00 | 0.00 | 61 | 1009.2 | |
| 20260507073025 | 13 | 0.0 | 1.6 | 0.00 | 0.00 | 0.00 | 63 | 1009.2 | |
| 20260507072105 | 13 | 0.0 | 0.0 | 0.00 | 0.00 | 0.00 | 64 | 1009.1 | |
| 20260507071025 | 13 | 0.0 | 0.0 | 0.00 | 0.00 | 0.00 | 65 | 1009.1 | |
| 20260507070025 | 13 | 0.0 | 3.2 | 0.00 | 0.00 | 0.00 | 69 | 1009.3 | |
| 20260507065025 | 13 | 0.0 | 3.2 | 0.00 | 0.00 | 0.00 | 70 | 1009.1 | |
| 20260507064026 | 13 | 68 | 1.6 | 11.3 | 0.00 | 0.00 | 0.00 | 66 | 1009.1 |
| 20260507063025 | 13 | 0.0 | 4.8 | 0.00 | 0.00 | 0.00 | 60 | 1009.4 | |
| 20260507062046 | 13 | 0.0 | 4.8 | 0.00 | 0.00 | 0.00 | 58 | 1009.2 | |
| 20260507061025 | 13 | 0.0 | 1.6 | 0.00 | 0.00 | 0.00 | 56 | 1008.5 | |
| 20260507060045 | 14 | 0.0 | 1.6 | 0.00 | 0.00 | 0.00 | 63 | 1007.7 | |
| 20260507055046 | 14 | 0.0 | 4.8 | 0.00 | 0.00 | 0.00 | 66 | 1007.5 | |
| 20260507054045 | 15 | 0.0 | 1.6 | 0.00 | 0.00 | 0.00 | 65 | 1007.7 | |
| 20260507053025 | 15 | 0.0 | 3.2 | 0.00 | 0.00 | 0.00 | 68 | 1008.5 | |
| 20260507052025 | 15 | 0.0 | 4.8 | 0.00 | 0.00 | 0.00 | 76 | 1008.9 | |
| 20260507051025 | 16 | 0.0 | 4.8 | 0.00 | 0.00 | 0.00 | 80 | 1009.1 | |
| 20260507050025 | 16 | 0.0 | 3.2 | 0.00 | 0.00 | 0.00 | 72 | 1008.9 | |
| 20260507045025 | 17 | 0.0 | 3.2 | 0.00 | 0.00 | 0.00 | 76 | 1008.7 | |
| 20260507044025 | 17 | 68 | 1.6 | 9.7 | 0.00 | 0.00 | 0.00 | 77 | 1008.2 |
| 20260507043025 | 17 | 0.0 | 0.0 | 0.00 | 0.00 | 0.00 | 59 | 1008.7 | |
| 20260507042025 | 17 | 0.0 | 0.0 | 0.00 | 0.00 | 0.00 | 65 | 1008.2 | |
| 20260507041025 | 17 | 0.0 | 6.4 | 0.00 | 0.00 | 0.00 | 66 | 1008.1 | |
| 20260507040046 | 17 | 0.0 | 0.0 | 0.00 | 0.00 | 0.00 | 68 | 1008.3 | |
| 20260507035025 | 17 | 0.0 | 0.0 | 0.00 | 0.00 | 0.00 | 73 | 1008.0 | |
| 20260507034026 | 17 | 0.0 | 0.0 | 0.00 | 0.00 | 0.00 | 75 | 1007.9 | |
| 20260507033025 | 17 | 0.0 | 0.0 | 0.00 | 0.00 | 0.00 | 76 | 1007.7 | |
| 20260507032025 | 17 | 0.0 | 0.0 | 0.00 | 0.00 | 0.00 | 72 | 1007.8 | |
| 20260507031026 | 17 | 0.0 | 0.0 | 0.00 | 0.00 | 0.00 | 71 | 1008.2 | |
| 20260507030025 | 17 | 0.0 | 0.0 | 0.00 | 0.00 | 0.00 | 71 | 1008.0 | |
| 20260507025026 | 17 | 0.0 | 0.0 | 0.00 | 0.00 | 0.00 | 73 | 1007.9 | |
| 20260507024025 | 17 | 0.0 | 0.0 | 0.00 | 0.00 | 0.00 | 75 | 1007.8 | |
| 20260507023025 | 17 | 0.0 | 0.0 | 0.00 | 0.00 | 0.00 | 77 | 1007.3 | |
| 20260507022046 | 17 | 0.0 | 0.0 | 0.00 | 0.00 | 0.00 | 78 | 1007.2 | |
| 20260507021046 | 17 | 0.0 | 0.0 | 0.00 | 0.00 | 0.00 | 80 | 1007.3 | |
| 20260507020026 | 17 | 0.0 | 0.0 | 0.00 | 0.00 | 0.00 | 81 | 1007.7 | |
| 20260507015045 | 17 | 0.0 | 0.0 | 0.00 | 0.00 | 0.00 | 83 | 1007.7 | |
| 20260507014025 | 18 | 0.0 | 0.0 | 0.00 | 0.00 | 0.00 | 84 | 1007.6 | |
| 20260507013045 | 18 | 0.0 | 0.0 | 0.00 | 0.00 | 0.00 | 85 | 1007.9 | |
| 20260507012025 | 18 | 0.0 | 0.0 | 0.00 | 0.00 | 0.00 | 85 | 1007.9 | |
| 20260507011025 | 18 | 0.0 | 0.0 | 0.00 | 0.00 | 0.00 | 85 | 1007.6 | |
| 20260507010025 | 18 | 0.0 | 0.0 | 0.00 | 0.00 | 0.00 | 85 | 1007.4 | |
| 20260507005025 | 18 | 0.0 | 1.6 | 0.00 | 0.00 | 0.00 | 84 | 1007.3 | |
| 20260507004025 | 19 | 0.0 | 0.0 | 0.00 | 0.00 | 0.00 | 84 | 1007.1 | |
| 20260507003025 | 19 | 0.0 | 3.2 | 0.00 | 0.00 | 0.00 | 84 | 1007.3 | |
| 20260507002025 | 20 | 0.0 | 0.0 | 0.00 | 0.00 | 0.00 | 84 | 1007.3 | |
| 20260507001025 | 20 | 0.0 | 1.6 | 0.00 | 0.00 | 0.00 | 83 | 1007.4 | |
| 20260507000025 | 20 | 0.0 | 0.0 | 0.00 | 0.00 | 0.00 | 82 | 1007.3 | |
| 20260506235025 | 20 | 0.0 | 1.6 | 0.00 | 0.00 | 0.00 | 81 | 1007.1 | |
| 20260506234045 | 20 | 0.0 | 1.6 | 0.00 | 0.00 | 0.00 | 81 | 1006.9 | |
| 20260506233026 | 20 | 0.0 | 1.6 | 0.00 | 0.00 | 0.00 | 81 | 1006.6 | |
| 20260506232025 | 21 | 0.0 | 1.6 | 0.00 | 0.00 | 0.00 | 80 | 1006.7 | |
| 20260506231025 | 21 | 0.0 | 3.2 | 0.00 | 0.00 | 0.00 | 80 | 1006.8 | |
| 20260506230045 | 21 | 0.0 | 6.4 | 0.00 | 0.00 | 0.00 | 79 | 1006.8 | |
| 20260506225026 | 21 | 0.0 | 3.2 | 0.00 | 0.00 | 0.00 | 79 | 1006.9 | |
| 20260506224025 | 21 | 0.0 | 4.8 | 0.00 | 0.00 | 0.00 | 78 | 1006.7 | |
| 20260506223024 | 21 | 0.0 | 6.4 | 0.00 | 0.00 | 0.00 | 77 | 1006.8 | |
| 20260506222025 | 21 | 68 | 1.6 | 6.4 | 0.00 | 0.00 | 0.00 | 76 | 1006.9 |
| 20260506221025 | 21 | 0.0 | 1.6 | 0.00 | 0.00 | 0.00 | 77 | 1006.7 | |
| 20260506220044 | 21 | 68 | 1.6 | 8.0 | 0.00 | 0.00 | 0.00 | 76 | 1006.8 |
| 20260506215025 | 21 | 68 | 1.6 | 17.7 | 0.00 | 0.00 | 0.00 | 76 | 1006.6 |
| 20260506214025 | 22 | 68 | 1.6 | 6.4 | 0.00 | 0.00 | 0.00 | 76 | 1006.7 |
| 20260506213024 | 22 | 0.0 | 1.6 | 0.00 | 0.00 | 0.00 | 76 | 1006.9 | |
| 20260506212026 | 21 | 0.0 | 4.8 | 0.00 | 0.00 | 0.00 | 77 | 1006.7 | |
| 20260506211024 | 21 | 0.0 | 4.8 | 0.00 | 0.00 | 0.00 | 77 | 1006.8 | |
| 20260506210024 | 21 | 0.0 | 4.8 | 0.00 | 0.00 | 0.00 | 77 | 1006.8 | |
| 20260506205025 | 21 | 68 | 1.6 | 8.0 | 0.00 | 0.00 | 0.00 | 77 | 1006.7 |
| 20260506204025 | 21 | 68 | 1.6 | 4.8 | 0.00 | 0.00 | 0.00 | 79 | 1006.8 |
| 20260506203046 | 21 | 68 | 1.6 | 4.8 | 0.00 | 0.00 | 0.00 | 79 | 1006.9 |
| 20260506202024 | 20 | 68 | 1.6 | 9.7 | 0.00 | 0.00 | 0.00 | 79 | 1006.8 |
| 20260506201025 | 20 | 90 | 1.6 | 8.0 | 0.00 | 0.00 | 0.00 | 80 | 1006.9 |
| 20260506200025 | 20 | 90 | 1.6 | 4.8 | 0.00 | 0.00 | 0.00 | 82 | 1006.9 |
| 20260506195025 | 19 | 0.0 | 4.8 | 0.00 | 0.00 | 0.00 | 82 | 1006.8 | |
| 20260506194025 | 19 | 68 | 1.6 | 11.3 | 0.00 | 0.00 | 0.00 | 82 | 1007.1 |
| 20260506193025 | 19 | 68 | 1.6 | 8.0 | 0.00 | 0.00 | 0.00 | 82 | 1006.9 |
| 20260506192025 | 19 | 68 | 1.6 | 6.4 | 0.00 | 0.00 | 0.00 | 82 | 1007.4 |
| 20260506191024 | 19 | 0.0 | 11.3 | 0.00 | 0.00 | 0.00 | 83 | 1007.6 | |
| 20260506190025 | 19 | 68 | 1.6 | 6.4 | 0.00 | 0.00 | 0.00 | 83 | 1007.8 |
| 20260506185024 | 19 | 68 | 1.6 | 6.4 | 0.00 | 0.00 | 0.00 | 83 | 1008.0 |
| 20260506184044 | 19 | 68 | 1.6 | 8.0 | 0.00 | 0.00 | 0.00 | 83 | 1007.9 |
| 20260506183025 | 19 | 68 | 1.6 | 8.0 | 0.00 | 0.00 | 0.00 | 83 | 1007.8 |
| 20260506182024 | 18 | 0.0 | 6.4 | 0.00 | 0.00 | 0.00 | 84 | 1008.2 | |
| 20260506181024 | 18 | 0.0 | 1.6 | 0.00 | 0.00 | 0.00 | 84 | 1008.1 | |
| 20260506180025 | 18 | 0.0 | 8.0 | 0.00 | 0.00 | 0.00 | 84 | 1008.0 | |
| 20260506175024 | 18 | 68 | 1.6 | 11.3 | 0.00 | 0.00 | 0.00 | 84 | 1008.1 |
| 20260506174045 | 18 | 68 | 1.6 | 6.4 | 0.00 | 0.00 | 0.00 | 85 | 1008.3 |
| 20260506173025 | 18 | 0.0 | 4.8 | 0.00 | 0.00 | 0.00 | 85 | 1008.3 | |
| 20260506172024 | 18 | 68 | 1.6 | 8.0 | 0.00 | 0.00 | 0.00 | 85 | 1008.3 |
| 20260506171045 | 18 | 0.0 | 11.3 | 0.00 | 0.00 | 0.00 | 85 | 1008.3 | |
| 20260506170024 | 18 | 0.0 | 4.8 | 0.00 | 0.00 | 0.00 | 85 | 1008.4 | |
| 20260506165024 | 18 | 90 | 1.6 | 8.0 | 0.00 | 0.00 | 0.00 | 85 | 1008.5 |
| 20260506164024 | 17 | 68 | 1.6 | 8.0 | 0.00 | 0.00 | 0.00 | 85 | 1008.8 |
| 20260506163024 | 17 | 68 | 1.6 | 9.7 | 0.00 | 0.00 | 0.00 | 80 | 1008.8 |
| 20260506162024 | 17 | 0.0 | 3.2 | 0.00 | 0.00 | 0.00 | 69 | 1009.3 | |
| 20260506161024 | 17 | 0.0 | 6.4 | 0.00 | 0.00 | 0.00 | 67 | 1009.1 | |
| 20260506160024 | 17 | 0.0 | 4.8 | 0.00 | 0.00 | 0.00 | 73 | 1008.8 | |
| 20260506155030 | 17 | 0.0 | 1.6 | 0.00 | 0.00 | 0.00 | 61 | 1008.9 | |
| 20260506154025 | 16 | 0.0 | 3.2 | 0.00 | 0.00 | 0.00 | 60 | 1009.0 | |
| 20260506153024 | 16 | 0.0 | 1.6 | 0.00 | 0.00 | 0.00 | 57 | 1009.0 | |
| 20260506152024 | 16 | 0.0 | 3.2 | 0.00 | 0.00 | 0.00 | 66 | 1008.8 | |
| 20260506151024 | 16 | 0.0 | 4.8 | 0.00 | 0.00 | 0.00 | 70 | 1008.8 | |
| 20260506150024 | 16 | 0.0 | 3.2 | 0.00 | 0.00 | 0.00 | 73 | 1009.0 | |
| 20260506145025 | 16 | 0.0 | 4.8 | 0.00 | 0.00 | 0.00 | 74 | 1009.3 | |
| 20260506144024 | 16 | 0.0 | 3.2 | 0.00 | 0.00 | 0.00 | 78 | 1009.6 | |
| 20260506143024 | 16 | 0.0 | 4.8 | 0.00 | 0.00 | 0.00 | 80 | 1009.6 | |
| 20260506142025 | 16 | 0.0 | 3.2 | 0.00 | 0.00 | 0.00 | 83 | 1009.4 | |
| 20260506141044 | 16 | 0.0 | 3.2 | 0.00 | 0.00 | 0.00 | 83 | 1009.3 | |
| 20260506140024 | 16 | 0.0 | 1.6 | 0.00 | 0.00 | 0.00 | 83 | 1009.3 | |
| 20260506135024 | 16 | 0.0 | 3.2 | 0.00 | 0.00 | 0.00 | 85 | 1009.1 |